COSMOS 2251 DEB

Satellite information

Favourite Embed

Satellite Type and Status

DEBRISIN ORBIT

Key statistics

Satellite COSMOS 2251 DEB at a glance.

Uptime

11649

Days in orbit

Revolutions

≈ 14.4

Per day

Orbit

LEO

Low Earth Orbit

Inclination

74.0

Latest

Satellite identification and parameters

Extended collection of information and parameters for COSMOS 2251 DEB.

Object identification

Identified? True

Debris? True

Object name: COSMOS 2251 DEB

International designator: 1993-036EZ

Object number (NORAD): 33944

Object ID (CCSDS): 33944

Country: COMMONWEALTH OF INDEPENDENT STATES (CIS)

Current information (Y/N): Y

RCS size: SMALL

Orbital parameters

Period: 100.219 minutes

Inclination: 74.0411 deg

SMA: 7147.07 km

Apoapsis: 850.794 km

Periapsis: 687.077 km

RAAN: 351.4071 deg

Eccentricy: 0.0114534

Argument of periapsis: 145.6259 deg

Mean anomaly: 230.9593 deg

Mean motion: 14.36847516 rev/day

Mean motion (dot): 0.00001054 rev/day2

B* drag term: 0.00033926 1/REarth

Two-line elements (TLE)

Creation date: May 8, 2025, 3:01 a.m.

Reference frame: TEME

Reference center: EARTH

Epoch: May 7, 2025, 9 p.m. UTC

TLE line 0: 0 COSMOS 2251 DEB

TLE line 1: 1 33944U 93036EZ 25127.87551064 .00001054 00000-0 33926-3 0 9993

TLE line 2: 2 33944 74.0411 351.4071 0114534 145.6259 230.9593 14.36847516848841

Live tracking on map

Real-time ground track for satellite COSMOS 2251 DEB.

In-orbit conjunctions

A list of the most updated potential collisions computed for object COSMOS 2251 DEB.

Target Orbit TCA Probability of collision Miss distance Type
COSMOS 2251 DEB LEO 2025-02-11 14:14:19 0.0001166319 172.0 (m) DEBRIS
FENGYUN 1C DEB SSO 2025-01-29 09:17:37 0.0001028205 332.0 (m) DEBRIS

Associated space launch

Military communications satellite. Destroyed in a collision with Iridium 33.

COSMOS 2251 DEB was lifted into orbit during the mission ‘Kosmos-3M | Strela-2M 51’, on board a Kosmos-3M space rocket.

The launch took place on June 16, 1993, 4:17 a.m. from 132/1 (132L).

For more information about the launch, click the button.

Launch to space Kosmos-3M | Strela-2M 51
Kosmos-3M | Strela-2M 51

Agency: N/A

Status: Launch Successful

Launch date: June 16, 1993, 4:17 a.m. UTC

Rocket: Kosmos-3M

Launch pad: 132/1 (132L)

Location: Plesetsk Cosmodrome, Russian Federation

...

Latest news about this satellite

There are no fresh news available about this satellite. Check back as we update our databases every day.


Newsletter sign-up

Weekly statistics, charts and insights to help you stay on top of the space industry.